Regional Weather Roundup
Issued by NWS

Home | Current Version | Previous Version | Graphics & Text | Print | Product List | Glossary On
Versions: 1 2 3 4 5 6 7 8 9 10 11 12 13 14 15 16 17 18 19 20 21 22 23 24 25 26 27 28 29 30 31 32 33 34 35 36 37 38 39 40 41 42 43 44 45 46 47 48 49 50
000
ASUS45 KCYS 222010
RWRWY

WYOMING REGIONAL WEATHER ROUNDUP
NATIONAL WEATHER SERVICE CHEYENNE WY
200 PM MDT TUE JUL 22 2014

NOTE:  "FAIR" INDICATES FEW OR NO CLOUDS BELOW 12,000 FEET
WITH NO SIGNIFICANT WEATHER AND/OR OBSTRUCTIONS TO VISIBILITY.

WYZ001-222100-
YELLOWSTONE NATIONAL PARK

CITY           SKY/WX    TMP DP  RH WIND       PRES   REMARKS
LK YELLOWSTONE   N/A     73  39  29 MISG      30.50S
W YELLOWSTONE  NOT AVBL

$$
WYZ002>013-054>058-071-098>099-222100-
NORTHERN WYOMING

CITY           SKY/WX    TMP DP  RH WIND       PRES   REMARKS
JACKSON        SUNNY     81  39  22 CALM      30.38S
CODY           MOSUNNY   88  48  25 N9        30.24S
GREYBULL       SUNNY     94  37  13 S9        30.16S
WORLAND        MOSUNNY   92  33  12 VRB3      30.16F
SHERIDAN       SUNNY     90  58  33 VRB6      30.17S
BUFFALO        SUNNY     92  44  19 SE8       30.23F
GILLETTE       SUNNY     91  54  28 S15G22    30.21F
HULETT         FAIR      86  55  35 MISG      30.25
NEWCASTLE      FAIR      90  45  20 S14       30.26

$$
WYZ014>020-022>026-101>103-222100-
CENTRAL WYOMING

CITY           SKY/WX    TMP DP  RH WIND       PRES   REMARKS
BIG PINEY      SUNNY     82  32  16 NW5       30.42F
PINEDALE       CLEAR     81  30  16 W10       30.44S
DUBOIS         FAIR      79  30  17 W12G30    30.42S
LANDER         SUNNY     89  41  18 CALM      30.26F
RIVERTON       SUNNY     87  42  20 VRB5      30.28F
CASPER         MOSUNNY   88  42  20 SE6       30.28F
DOUGLAS        SUNNY     89  54  30 SE16      30.29S

$$
WYZ021-027>030-104>119-222100-
SOUTHERN WYOMING

CITY           SKY/WX    TMP DP  RH WIND       PRES   REMARKS
EVANSTON       SUNNY     84  29  13 SW10G24   30.42F
KEMMERER       CLEAR     82  27  13 W8G20     30.45S
FORT BRIDGER   FAIR      86  28  12 SW3       30.45S
ROCK SPRINGS   SUNNY     88  26  10 N8        30.38
DIXON          FAIR      91  25   9 SW8       30.40F
RAWLINS        SUNNY     90  21   8 W14       30.40S
SARATOGA       FAIR      88  27  11 W12       30.43S
LARAMIE        SUNNY     86  30  13 SE9G17    30.43S
CHEYENNE       SUNNY     84  52  33 VRB6G16   30.38S
TORRINGTON     SUNNY     89  56  32 SE13      30.24F
PINE BLUFFS    FAIR      90  46  22 SE6       30.31S

$$



USA.gov is the U.S. government's official web portal to all federal, state and local government web resources and services.